STARLINK-1579 (46083 NORAD) Tracking and Keplerian Element Data

This shows tracking and keplerian element data for the satellite.

Feedback or suggestion? Click here.




ElementValue
Catalog46083
NameSTARLINK-1579
Epoch Orbit1933
Epoch Day336.82565269
Epoch Year2020
RAAN93.2013
Inclination52.9963
Eccentricity0.0001373
Argument of Perigee80.0703
Mean Anonmoly280.044
Mean Motion15.0558462
Decay Rate-8.95E-06
L11 46083U 20055BJ 20336.82565269 -.00000895 00000-0 -42224-4 0 9992
L22 46083 52.9963 93.2013 0001373 80.0703 280.0440 15.05584620 19337

Live tracking and technical data element details for STARLINK-1579 (NORAD 46083). STARLINK-1579 can be tracked NOW for your location showing map with azimuth and elevation plus other details from your city location.

Track the satellite on the map from your city or location and see movement details for azimuth, elevation, latitude, longitude, range, height, and movement on the map or in text.







IsCatalogInMostPopularTable: catalog: 46083, numindb: 55
Update: records affected: 1



GetName: 46083 STARLINK-1579

Hit Count: updated at: Wed, 02 Dec 2020 19:10:55 GMT